EGG HARBOR TWP. - NJ NJ-MESONET current weather conditions

sailwx.info

Wind from 279 at 3 knots gusting 13

Air temperature 7.8° C
Dewpoint 2.8° C

Last reported at 2019-Dec-15 13:55 UTC.
Time now 2019-Dec-15 15:07 UTC

Location: N 39°25' W 074°32'.
View on Google Maps.

See reports from other nearby stations

  
Tides and Currents Weather Stations Pressure Air Temp Water Temp Dewpoint Dewpoint Depression Visibility Wind Speed Wind Dir Waves Ship Positions
date/time (UTC)wind fromknots sea level pressurealtimeterstation pressurevisibilityair tempwater tempwave heightnotes
2019-Dec-15 13:55 279 3 gusting 13 7.8
2019-Dec-15 13:50 258 7.8
2019-Dec-15 13:45 345 3 gusting 7 7.2
2019-Dec-15 13:40 289 7.2
2019-Dec-15 13:35 261 6.7
2019-Dec-15 13:30 294 4 gusting 7 6.7
2019-Dec-15 13:25 278 0 gusting 6 6.7
2019-Dec-15 13:20 331 1 gusting 8 6.7
2019-Dec-15 13:15 291 6.7
2019-Dec-15 13:10 285 3 gusting 4 6.1
2019-Dec-15 13:05 262 6.1
2019-Dec-15 13:00 288 2 gusting 5 6.1
2019-Dec-15 12:55 301 4 gusting 6 6.1
2019-Dec-15 12:50 262 1 gusting 4 6.1
2019-Dec-15 12:45 6.1
2019-Dec-15 12:40 250 4 gusting 6 6.1
2019-Dec-15 12:35 292 2 gusting 6 6.1
2019-Dec-15 12:30 287 5 gusting 6 6.1
2019-Dec-15 12:25 287 4 gusting 7 6.1
2019-Dec-15 12:20 274 2 gusting 5 6.1
2019-Dec-15 12:15 301 2 gusting 8 6.1
2019-Dec-15 12:10 290 0 gusting 8 6.1
2019-Dec-15 12:05 250 1 gusting 6 6.1
2019-Dec-15 12:00 266 1 gusting 6 6.1
2019-Dec-15 11:55 309 0 gusting 6 6.1
2019-Dec-15 11:50 281 4 gusting 7 6.1
2019-Dec-15 11:45 234 4 gusting 7 6.1
2019-Dec-15 11:40 279 1 gusting 8 6.1
2019-Dec-15 11:35 310 5 gusting 7 6.1
2019-Dec-15 11:30 308 6 gusting 6 6.1
2019-Dec-15 11:25 266 4 gusting 8 6.1
2019-Dec-15 11:20 252 0 gusting 6 6.1
2019-Dec-15 11:15 292 4 gusting 8 6.1
2019-Dec-15 11:10 273 5 gusting 6 6.1
2019-Dec-15 11:05 274 6.1
2019-Dec-15 11:00 301 1 gusting 7 6.1
2019-Dec-15 10:55 290 4 gusting 6 6.1
2019-Dec-15 10:50 276 4 gusting 7 6.1
2019-Dec-15 10:45 264 4 gusting 6 5.6
2019-Dec-15 10:40 342 5.6
2019-Dec-15 10:35 290 6 gusting 7 6.1
2019-Dec-15 10:30 250 6 gusting 8 5.6
2019-Dec-15 10:25 259 4 gusting 7 5.6
2019-Dec-15 10:20 314 1 gusting 9 5.6
2019-Dec-15 10:15 307 5.6
2019-Dec-15 10:10 264 0 gusting 9 5.6
2019-Dec-15 10:05 316 4 gusting 9 5.6
2019-Dec-15 10:00 300 0 gusting 9 5.6
2019-Dec-15 09:55 278 4 gusting 9 5.6
2019-Dec-15 09:50 282 5 gusting 9 5.6
2019-Dec-15 09:45 294 2 gusting 8 5.6
2019-Dec-15 09:40 286 3 gusting 6 5.0
2019-Dec-15 09:35 258 0 gusting 9 5.0
2019-Dec-15 09:30 262 0 gusting 7 5.0
2019-Dec-15 09:25 274 2 gusting 8 5.0
2019-Dec-15 09:20 263 2 gusting 6 5.0
2019-Dec-15 09:15 346 1 gusting 6 5.0
2019-Dec-15 09:10 340 1 gusting 9 5.0
2019-Dec-15 09:05 290 4 gusting 6 5.0
2019-Dec-15 09:00 321 2 gusting 10 5.0
2019-Dec-15 08:55 293 4 gusting 9 5.0
2019-Dec-15 08:50 284 4 gusting 8 5.0
2019-Dec-15 08:45 307 4 gusting 12 5.0
2019-Dec-15 08:40 267 3 gusting 10 5.0
2019-Dec-15 08:35 296 4 gusting 9 5.0
2019-Dec-15 08:30 306 6 gusting 9 5.0
2019-Dec-15 08:25 003 2 gusting 9 5.0
2019-Dec-15 08:20 319 2 gusting 8 5.0
2019-Dec-15 08:15 311 2 gusting 8 5.0
2019-Dec-15 08:10 255 1 gusting 8 5.0
2019-Dec-15 08:05 304 3 gusting 6 5.0
2019-Dec-15 08:00 218 5.0
2019-Dec-15 07:55 333 4 gusting 8 5.0
2019-Dec-15 07:50 278 1 gusting 5 5.0
2019-Dec-15 07:45 281 2 gusting 8 5.0
2019-Dec-15 07:40 290 1 gusting 7 5.0
2019-Dec-15 07:35 276 2 gusting 6 5.0
2019-Dec-15 07:30 308 4 gusting 7 5.0
2019-Dec-15 07:25 291 4 gusting 6 5.0
2019-Dec-15 07:20 290 4 gusting 6 5.0
2019-Dec-15 07:15 156 5.0
2019-Dec-15 07:10 312 5 gusting 6 5.0
2019-Dec-15 07:05 280 1 gusting 4 5.0
2019-Dec-15 07:00 266 4 gusting 6 5.0
2019-Dec-15 06:55 282 5.0
2019-Dec-15 06:50 299 3 gusting 5 5.0
2019-Dec-15 06:45 294 4 gusting 6 5.0
2019-Dec-15 06:40 308 1 gusting 5 5.0
2019-Dec-15 06:35 262 0 gusting 6 5.0
2019-Dec-15 06:30 285 4 gusting 6 5.0
2019-Dec-15 06:25 318 0 gusting 7 5.0
2019-Dec-15 06:20 240 5.0
2019-Dec-15 06:15 324 0 gusting 9 5.6
2019-Dec-15 06:10 255 2 gusting 9 5.6
2019-Dec-15 06:05 323 4 gusting 9 5.6
2019-Dec-15 06:00 273 5.6
2019-Dec-15 05:55 324 2 gusting 7 5.6
2019-Dec-15 05:50 220 2 gusting 9 5.6
2019-Dec-15 05:45 304 6 gusting 8 5.6
2019-Dec-15 05:40 324 2 gusting 9 5.6
2019-Dec-15 05:35 351 4 gusting 10 5.6
2019-Dec-15 05:30 272 2 gusting 9 6.1
2019-Dec-15 05:25 274 4 gusting 8 6.1
2019-Dec-15 05:20 298 3 gusting 6 6.1
2019-Dec-15 05:15 257 6 gusting 11 6.1
2019-Dec-15 05:10 336 4 gusting 10 6.1
2019-Dec-15 05:05 296 7 gusting 9 6.1
2019-Dec-15 05:00 295 5 gusting 12 6.1
2019-Dec-15 04:55 266 3 gusting 13 6.1
2019-Dec-15 04:50 328 7 gusting 12 6.7
2019-Dec-15 04:45 334 9 gusting 13 6.7
2019-Dec-15 04:40 341 3 gusting 12 6.7
2019-Dec-15 04:35 293 6 gusting 13 6.7
2019-Dec-15 04:30 030 3 gusting 15 6.7
2019-Dec-15 04:25 324 10 gusting 15 6.7
2019-Dec-15 04:20 324 4 gusting 13 6.7
2019-Dec-15 04:15 299 6 gusting 10 6.7
2019-Dec-15 04:10 257 3 gusting 14 6.7
2019-Dec-15 04:00 351 3 gusting 11 6.7
2019-Dec-15 03:55 319 2 gusting 9 6.7
2019-Dec-15 03:50 298 6 gusting 11 6.7
2019-Dec-15 03:45 333 2 gusting 9 6.7
2019-Dec-15 03:40 302 2 gusting 9 6.7
2019-Dec-15 03:35 290 4 gusting 9 6.7
2019-Dec-15 03:30 001 6 gusting 9 6.7
2019-Dec-15 03:25 279 2 gusting 12 7.2
2019-Dec-15 03:20 288 9 gusting 11 7.2
2019-Dec-15 03:15 259 2 gusting 7 7.2
2019-Dec-15 03:10 283 6 gusting 9 7.2
2019-Dec-15 03:05 345 6 gusting 13 7.2
2019-Dec-15 03:00 281 5 gusting 11 7.2
2019-Dec-15 02:55 310 2 gusting 13 7.2
2019-Dec-15 02:50 312 7 gusting 10 7.2
2019-Dec-15 02:45 276 3 gusting 10 7.8
2019-Dec-15 02:40 279 6 gusting 13 7.8
2019-Dec-15 02:35 336 6 gusting 13 7.8
2019-Dec-15 02:30 336 8 gusting 17 7.8
2019-Dec-15 02:25 312 9 gusting 15 7.8
2019-Dec-15 02:20 307 10 gusting 13 7.8
2019-Dec-15 02:15 276 6 gusting 14 8.3
2019-Dec-15 02:10 303 6 gusting 13 8.3
2019-Dec-15 02:05 210 1 gusting 18 8.3
2019-Dec-15 02:00 287 6 gusting 16 8.3
2019-Dec-15 01:55 329 10 gusting 14 8.3
2019-Dec-15 01:50 299 5 gusting 13 8.9
2019-Dec-15 01:45 273 5 gusting 13 8.9
2019-Dec-15 01:40 252 8 gusting 12 8.9
2019-Dec-15 01:35 295 4 gusting 11 8.9
2019-Dec-15 01:30 294 4 gusting 13 8.9
2019-Dec-15 01:25 264 3 gusting 11 8.9
2019-Dec-15 01:20 247 6 gusting 13 8.9
2019-Dec-15 01:15 312 6 gusting 11 8.9
2019-Dec-15 01:10 277 6 gusting 13 8.9
2019-Dec-15 01:05 261 5 gusting 9 8.9
2019-Dec-15 01:00 335 4 gusting 11 8.9
2019-Dec-15 00:55 290 4 gusting 20 9.4
2019-Dec-15 00:50 296 9 gusting 11 9.4
2019-Dec-15 00:45 285 6 gusting 13 8.9
2019-Dec-15 00:40 312 6 gusting 15 8.9
2019-Dec-15 00:35 295 6 gusting 12 8.9
2019-Dec-15 00:30 331 8.9
2019-Dec-15 00:25 285 2 gusting 11 8.9
2019-Dec-15 00:20 313 8.9
2019-Dec-15 00:15 274 5 gusting 11 8.9
2019-Dec-15 00:10 328 8 gusting 12 8.9
2019-Dec-15 00:05 299 6 gusting 9 8.9
2019-Dec-15 00:00 274 5 gusting 8 8.9
2019-Dec-14 23:55 268 8.9
2019-Dec-14 23:50 304 3 gusting 8 8.9
2019-Dec-14 23:45 298 2 gusting 12 8.9
2019-Dec-14 23:40 283 5 gusting 9 8.9
2019-Dec-14 23:35 025 3 gusting 13 8.9
2019-Dec-14 23:30 249 3 gusting 13 8.9
2019-Dec-14 23:25 266 9 gusting 9 8.9
2019-Dec-14 23:20 258 8.9
2019-Dec-14 23:15 225 5 gusting 10 8.9
2019-Dec-14 23:10 287 7 gusting 9 9.4
2019-Dec-14 23:05 264 2 gusting 9 9.4
2019-Dec-14 23:00 336 6 gusting 9 9.4
2019-Dec-14 22:55 322 9.4
2019-Dec-14 22:50 305 9.4
2019-Dec-14 22:45 340 9.4
2019-Dec-14 22:40 348 4 gusting 11 9.4
2019-Dec-14 22:35 289 4 gusting 12 9.4
2019-Dec-14 22:30 254 4 gusting 6 10.0
2019-Dec-14 22:25 270 3 gusting 8 10.0
2019-Dec-14 22:20 284 10.0
2019-Dec-14 22:15 296 4 gusting 8 10.0
2019-Dec-14 22:10 269 10.0
2019-Dec-14 22:05 256 10.0
2019-Dec-14 22:00 265 3 gusting 6 10.0
2019-Dec-14 21:55 314 10.0
2019-Dec-14 21:50 293 10.0
2019-Dec-14 21:45 294 3 gusting 8 10.6
2019-Dec-14 21:40 315 2 gusting 10 10.0
2019-Dec-14 21:35 353 10.6
2019-Dec-14 21:30 249 10.6
2019-Dec-14 21:25 003 4 gusting 8 10.6
2019-Dec-14 21:20 240 4 gusting 13 10.6
2019-Dec-14 21:05 308 1 gusting 12 10.6
2019-Dec-14 21:00 225 10.6
2019-Dec-14 20:55 254 10.6
2019-Dec-14 20:50 332 2 gusting 8 10.6
2019-Dec-14 20:45 260 10.6
2019-Dec-14 20:40 293 0 gusting 8 11.1
2019-Dec-14 20:35 257 1 gusting 8 11.1
2019-Dec-14 20:30 253 2 gusting 11 11.1
2019-Dec-14 20:25 248 7 gusting 10 11.1
2019-Dec-14 20:20 323 4 gusting 9 11.7
2019-Dec-14 20:15 274 3 gusting 13 11.7
2019-Dec-14 20:10 279 6 gusting 9 12.2
2019-Dec-14 20:05 016 12.2
2019-Dec-14 20:00 296 12.2
2019-Dec-14 19:55 297 12.2
2019-Dec-14 19:50 233 12.2
2019-Dec-14 19:45 205 12.2
2019-Dec-14 19:40 292 12.2
2019-Dec-14 19:35 160 12.2
2019-Dec-14 19:30 149 1 gusting 4 11.7
2019-Dec-14 19:25 352 11.7
2019-Dec-14 19:20 195 11.7
2019-Dec-14 19:15 257 11.7
2019-Dec-14 19:10 035 11.7
2019-Dec-14 19:05 241 11.7
2019-Dec-14 19:00 308 1 gusting 1 11.7
2019-Dec-14 18:55 137 11.7
2019-Dec-14 18:50 203 11.7
2019-Dec-14 18:45 169 11.7
2019-Dec-14 18:40 213 11.7
2019-Dec-14 18:35 167 11.7
2019-Dec-14 18:30 187 13 gusting 13 11.7
2019-Dec-14 18:25 209 11.7
2019-Dec-14 18:20 281 11.7
2019-Dec-14 18:15 284 3 gusting 8 11.1
2019-Dec-14 18:10 339 11.7
2019-Dec-14 18:05 082 11.7
2019-Dec-14 18:00 268 11.7
2019-Dec-14 17:55 193 3 gusting 6 11.7
2019-Dec-14 17:50 191 11.7
2019-Dec-14 17:45 223 1 gusting 9 11.7
2019-Dec-14 17:40 244 11.7
2019-Dec-14 17:35 348 11.7
2019-Dec-14 17:30 126 3 gusting 6 11.7
2019-Dec-14 17:25 124 11.7
2019-Dec-14 17:20 090 0 gusting 8 11.7
2019-Dec-14 17:15 186 1 gusting 11 11.7
2019-Dec-14 17:10 216 4 gusting 8 12.2
2019-Dec-14 17:05 193 12.2
2019-Dec-14 17:00 302 12.2
2019-Dec-14 16:55 196 4 gusting 9 12.2
2019-Dec-14 16:50 181 3 gusting 6 12.2
2019-Dec-14 16:45 225 1 gusting 6 12.2
2019-Dec-14 16:40 163 4 gusting 7 12.2
2019-Dec-14 16:35 187 4 gusting 5 12.8
2019-Dec-14 16:30 177 2 gusting 6 12.8
2019-Dec-14 16:25 207 0 gusting 4 12.8
2019-Dec-14 16:20 198 2 gusting 4 12.8
2019-Dec-14 16:15 196 3 gusting 3 13.3
2019-Dec-14 16:10 220 13.3
2019-Dec-14 16:05 236 12.8
2019-Dec-14 16:00 282 1 gusting 4 12.8
2019-Dec-14 15:55 091 13.3
2019-Dec-14 15:50 332 12.8
2019-Dec-14 15:45 196 4 gusting 6 13.3
2019-Dec-14 15:40 192 13.3
2019-Dec-14 15:35 176 0 gusting 4 13.9
2019-Dec-14 15:30 212 13.9
2019-Dec-14 15:25 187 3 gusting 4 13.9
2019-Dec-14 15:20 147 3 gusting 4 13.9
2019-Dec-14 15:15 166 13.9
2019-Dec-14 15:10 132 13.9
2019-Dec-14 15:05 164 13.9
2019-Dec-14 15:00 138 13.9
2019-Dec-14 14:55 164 3 gusting 3 13.9
2019-Dec-14 14:50 202 13.9
2019-Dec-14 14:45 213 13.3
2019-Dec-14 14:40 173 13.3
2019-Dec-14 14:35 172 13.3
2019-Dec-14 14:30 264 13.3
2019-Dec-14 14:25 353 13.3
2019-Dec-14 14:20 270 13.3
2019-Dec-14 14:15 280 12.8
2019-Dec-14 14:10 260 12.8
2019-Dec-14 14:05 282 12.8
2019-Dec-14 14:00 170 12.8
2019-Dec-14 13:55 170 12.8
2019-Dec-14 13:50 243 12.8
2019-Dec-14 13:45 008 12.8
2019-Dec-14 13:40 297 12.8
2019-Dec-14 13:35 139 12.2
2019-Dec-14 13:30 019 12.2
2019-Dec-14 13:25 293 12.2
2019-Dec-14 13:20 242 12.2
2019-Dec-14 13:15 247 12.8
2019-Dec-14 13:10 212 12.2
2019-Dec-14 13:05 337 12.2
2019-Dec-14 13:00 188 12.2
2019-Dec-14 12:55 160 12.2
2019-Dec-14 12:50 170 12.2
2019-Dec-14 12:45 205 12.2
2019-Dec-14 12:40 153 12.2
2019-Dec-14 12:35 200 12.2
2019-Dec-14 12:30 174 12.2
2019-Dec-14 12:25 206 12.2
2019-Dec-14 12:20 155 12.2
2019-Dec-14 12:15 135 12.2
2019-Dec-14 12:10 162 12.2
2019-Dec-14 12:05 187 12.2
2019-Dec-14 12:00 184 12.2
2019-Dec-14 11:55 150 12.2
2019-Dec-14 11:50 281 12.2
2019-Dec-14 11:45 226 12.2
2019-Dec-14 11:40 233 12.2
2019-Dec-14 11:35 241 12.2
2019-Dec-14 11:30 298 12.2
2019-Dec-14 11:25 173 12.2
2019-Dec-14 11:20 170 12.2
2019-Dec-14 10:55 348 12.8
2019-Dec-14 10:50 334 12.2
2019-Dec-14 10:45 256 12.2
2019-Dec-14 10:40 213 12.2
2019-Dec-14 10:35 265 12.2
2019-Dec-14 10:30 167 12.2
2019-Dec-14 10:25 172 12.2
2019-Dec-14 10:20 147 12.2
2019-Dec-14 10:15 176 12.2
2019-Dec-14 10:10 139 12.2
2019-Dec-14 10:05 191 12.2
2019-Dec-14 10:00 238 12.2
2019-Dec-14 09:55 196 12.2
2019-Dec-14 09:50 152 12.2
2019-Dec-14 09:45 168 12.2
2019-Dec-14 09:40 185 12.2
2019-Dec-14 09:35 169 12.2
2019-Dec-14 09:30 182 12.2
2019-Dec-14 09:25 295 12.2
2019-Dec-14 09:20 295 12.2
2019-Dec-14 09:05 195 12.2
2019-Dec-14 09:00 186 12.2
2019-Dec-14 08:50 159 12.2
2019-Dec-14 08:45 196 12.2
2019-Dec-14 08:40 182 12.2
2019-Dec-14 08:35 185 12.8
2019-Dec-14 08:30 153 12.8
2019-Dec-14 08:25 162 12.8
2019-Dec-14 08:20 209 12.8
2019-Dec-14 08:15 187 12.8
2019-Dec-14 08:10 159 12.8
2019-Dec-14 08:05 320 12.8
2019-Dec-14 08:00 320 12.8
2019-Dec-14 07:55 318 12.8
2019-Dec-14 07:50 166 12.8
2019-Dec-14 07:45 166 12.8
2019-Dec-14 07:40 173 12.8
2019-Dec-14 07:35 172 12.8
2019-Dec-14 07:30 156 12.8
2019-Dec-14 07:25 154 12.8
2019-Dec-14 07:20 180 12.8
2019-Dec-14 07:15 156 12.8
2019-Dec-14 07:10 176 12.8
2019-Dec-14 07:05 189 12.8
2019-Dec-14 07:00 161 12.8
2019-Dec-14 06:55 038 12.8
2019-Dec-14 06:50 011 12.8
2019-Dec-14 06:45 294 12.8
2019-Dec-14 06:40 166 12.8
2019-Dec-14 06:35 181 12.8
2019-Dec-14 06:30 218 12.8
2019-Dec-14 06:25 292 13.3
2019-Dec-14 06:20 294 13.3
2019-Dec-14 06:15 048 13.3
2019-Dec-14 06:10 044 13.3
2019-Dec-14 06:05 164 13.3
2019-Dec-14 06:00 180 13.3
2019-Dec-14 05:55 183 2 gusting 3 13.3
2019-Dec-14 05:50 189 13.3
2019-Dec-14 05:45 259 13.3
2019-Dec-14 05:40 152 12.8
2019-Dec-14 05:35 120 12.8
2019-Dec-14 05:30 061 12.8
2019-Dec-14 05:25 172 12.8
2019-Dec-14 05:20 069 12.8
2019-Dec-14 05:15 166 12.8
2019-Dec-14 05:10 160 12.8
2019-Dec-14 05:05 177 12.8
2019-Dec-14 05:00 044 12.8
2019-Dec-14 04:55 080 12.8
2019-Dec-14 04:50 118 12.8
2019-Dec-14 04:45 150 12.8
2019-Dec-14 04:40 033 12.8
2019-Dec-14 04:35 142 12.8
2019-Dec-14 04:30 340 0 gusting 4 12.8
2019-Dec-14 04:25 002 12.8
2019-Dec-14 04:20 094 12.8
2019-Dec-14 04:15 091 12.8
2019-Dec-14 04:10 165 13.3
2019-Dec-14 04:05 188 13.3
2019-Dec-14 04:00 252 4 gusting 8 13.3
2019-Dec-14 03:55 107 13.3
2019-Dec-14 03:50 086 13.3
2019-Dec-14 03:45 166 4 gusting 6 13.3
2019-Dec-14 03:40 152 5 gusting 9 13.3
2019-Dec-14 03:35 147 12.2
2019-Dec-14 03:30 220 12.2
2019-Dec-14 03:25 177 12.2
2019-Dec-14 03:20 227 12.2
2019-Dec-14 03:15 190 12.2
2019-Dec-14 03:10 222 2 gusting 8 12.2
2019-Dec-14 03:05 129 12.2
2019-Dec-14 03:00 186 12.2
2019-Dec-14 02:55 104 4 gusting 9 12.2
2019-Dec-14 02:50 059 12.2
2019-Dec-14 02:45 213 12.2
2019-Dec-14 02:40 100 12.2
2019-Dec-14 02:35 238 0 gusting 5 12.2
2019-Dec-14 02:30 100 1 gusting 3 12.2
2019-Dec-14 02:25 142 12.2
2019-Dec-14 02:20 048 12.2
2019-Dec-14 02:15 082 12.2
2019-Dec-14 02:10 053 12.2
2019-Dec-14 02:05 123 11.7
2019-Dec-14 02:00 136 11.7
2019-Dec-14 01:55 125 11.7
2019-Dec-14 01:50 121 11.7
2019-Dec-14 01:45 097 11.7
2019-Dec-14 01:40 165 11.7
2019-Dec-14 01:35 033 11.7
2019-Dec-14 01:30 189 11.7
2019-Dec-14 01:25 115 11.7
2019-Dec-14 01:20 128 11.7
2019-Dec-14 01:15 013 11.7
2019-Dec-14 01:10 217 11.7
2019-Dec-14 01:05 047 11.7
2019-Dec-14 01:00 103 11.7
2019-Dec-14 00:55 031 11.7
2019-Dec-14 00:50 027 2 gusting 3 11.7
2019-Dec-14 00:45 040 11.7
2019-Dec-14 00:40 080 11.7
2019-Dec-14 00:35 090 11.7
2019-Dec-14 00:30 058 11.7
2019-Dec-14 00:25 056 11.7
2019-Dec-14 00:20 084 2 gusting 5 11.7
2019-Dec-14 00:15 074 11.7
2019-Dec-14 00:10 052 2 gusting 4 11.7
2019-Dec-14 00:05 076 11.7
2019-Dec-14 00:00 079 11.7
2019-Dec-13 23:55 060 2 gusting 6 11.7
2019-Dec-13 23:50 343 3 gusting 7 11.7
2019-Dec-13 23:45 030 2 gusting 4 11.7
2019-Dec-13 23:40 051 3 gusting 4 11.7
2019-Dec-13 23:35 081 4 gusting 4 11.7
2019-Dec-13 23:30 056 11.7
2019-Dec-13 23:25 096 11.7
2019-Dec-13 23:20 073 1 gusting 4 11.7
2019-Dec-13 23:15 010 11.7
2019-Dec-13 23:10 329 11.7
2019-Dec-13 23:05 090 11.7
2019-Dec-13 23:00 060 12.2
2019-Dec-13 22:55 062 12.2
2019-Dec-13 22:50 086 12.2
2019-Dec-13 22:45 249 12.2
2019-Dec-13 22:40 059 1 gusting 4 12.2
2019-Dec-13 22:35 073 12.2
2019-Dec-13 22:30 207 12.2
2019-Dec-13 22:25 055 12.2
2019-Dec-13 22:20 068 11.7
2019-Dec-13 22:15 099 11.7
2019-Dec-13 22:10 063 11.7
2019-Dec-13 22:05 083 11.7
2019-Dec-13 22:00 063 11.7
2019-Dec-13 21:55 063 11.7
2019-Dec-13 21:50 090 11.7
2019-Dec-13 21:45 151 11.7
2019-Dec-13 21:40 218 11.7
2019-Dec-13 21:35 071 11.7
2019-Dec-13 21:30 047 11.7
2019-Dec-13 21:25 048 11.7
2019-Dec-13 21:20 268 11.1
2019-Dec-13 21:15 093 11.1
2019-Dec-13 21:10 078 11.7
2019-Dec-13 21:05 171 11.7
2019-Dec-13 21:00 166 11.7
2019-Dec-13 20:55 106 11.7
2019-Dec-13 20:50 036 11.7
2019-Dec-13 20:45 036 11.7
2019-Dec-13 20:40 064 11.7
2019-Dec-13 20:35 140 11.7
2019-Dec-13 20:30 158 1 gusting 6 11.7
2019-Dec-13 20:25 171 6 gusting 8 11.7
2019-Dec-13 20:20 196 11.7
2019-Dec-13 20:15 180 11.7
2019-Dec-13 20:10 172 11.7
2019-Dec-13 20:05 154 4 gusting 4 11.7
2019-Dec-13 20:00 114 11.7
2019-Dec-13 19:55 169 4 gusting 8 11.7
2019-Dec-13 19:50 160 5 gusting 7 11.7
2019-Dec-13 19:45 164 4 gusting 7 11.7
2019-Dec-13 19:40 198 11.7
2019-Dec-13 19:35 163 11.7
2019-Dec-13 19:30 172 4 gusting 10 11.7
2019-Dec-13 19:25 137 4 gusting 7 11.7
2019-Dec-13 19:20 173 4 gusting 7 11.7
2019-Dec-13 19:15 182 6 gusting 12 11.7
2019-Dec-13 19:10 166 4 gusting 7 11.7
2019-Dec-13 19:05 134 3 gusting 11 11.7
2019-Dec-13 19:00 198 2 gusting 8 11.7
2019-Dec-13 18:55 200 1 gusting 10 11.7
2019-Dec-13 18:50 127 4 gusting 6 11.1
2019-Dec-13 18:45 169 11.1
2019-Dec-13 18:40 148 11.1
2019-Dec-13 18:35 158 11.1
2019-Dec-13 18:30 138 11.1
2019-Dec-13 18:25 151 11.1
2019-Dec-13 18:20 162 10.6
2019-Dec-13 18:15 081 11.1
2019-Dec-13 18:10 074 11.1
2019-Dec-13 18:05 076 11.1
2019-Dec-13 18:00 170 11.1
2019-Dec-13 17:55 101 11.1
2019-Dec-13 17:50 048 10.6
2019-Dec-13 17:45 166 10.6
2019-Dec-13 17:40 142 10.6
2019-Dec-13 17:35 153 10.6
2019-Dec-13 17:30 078 10.6
2019-Dec-13 17:25 180 10.6
2019-Dec-13 17:20 226 10.6
2019-Dec-13 17:15 144 10.6
2019-Dec-13 17:10 148 10.6
2019-Dec-13 17:05 162 10.6
2019-Dec-13 17:00 167 10.6
2019-Dec-13 16:55 299 10.6
2019-Dec-13 16:50 113 10.6
2019-Dec-13 16:45 157 10.0
2019-Dec-13 16:40 185 10.0
2019-Dec-13 16:35 070 10.6
2019-Dec-13 16:30 158 10.0
2019-Dec-13 16:25 144 10.0
2019-Dec-13 16:20 088 10.0
2019-Dec-13 16:15 111 2 gusting 2 10.0
2019-Dec-13 16:10 138 10.0
2019-Dec-13 16:05 146 10.0
2019-Dec-13 16:00 184 10.0
2019-Dec-13 15:55 095 10.0
2019-Dec-13 15:50 095 10.0
2019-Dec-13 15:45 314 9.4
2019-Dec-13 15:40 075 9.4
2019-Dec-13 15:35 052 9.4
2019-Dec-13 15:30 084 9.4
2019-Dec-13 15:25 060 9.4
2019-Dec-13 15:20 159 8.9
2019-Dec-13 15:15 044 8.9
2019-Dec-13 15:10 061 8.9
2019-Dec-13 15:05 145 8.3
2019-Dec-13 15:00 145 8.3